Location: Newark
(43.4306°N, 0.3089°E)
Time: 23:25:13
(UTC+00:00)

Courier 1B Rocket - Visible Passes

Search period start: 19 August 2019 00:00
Search period end: 29 August 2019 00:00
Orbit: 920 x 1202 km, 28.3° (Epoch: 19 August)

Date Brightness Start Highest point End Pass type
(mag) Time Alt. Az. Time Alt. Az. Time Alt. Az.
19 Aug 7.2 03:39:26 10° S 03:43:26 15° SSE 03:47:28 10° SE visible
20 Aug 7.3 02:41:41 11° SSE 02:42:38 11° SSE 02:44:22 10° SE visible
20 Aug 6.9 04:29:30 10° SW 04:35:04 22° SSE 04:40:43 10° ESE visible
21 Aug 6.9 03:30:44 14° SSW 03:34:11 19° SSE 03:39:11 10° ESE visible
22 Aug 7.1 02:33:24 15° SSE 02:33:24 15° SSE 02:37:12 10° SE visible
22 Aug 6.7 04:20:03 10° SW 04:25:52 24° S 04:31:49 10° ESE visible
23 Aug 6.7 03:22:27 18° SSW 03:24:58 21° SSE 03:30:30 10° ESE visible
24 Aug 6.9 02:25:09 17° SSE 02:25:09 17° SSE 02:28:54 10° ESE visible
24 Aug 6.6 04:11:30 12° SW 04:16:42 25° S 04:22:45 10° SE visible
25 Aug 6.5 03:14:13 22° S 03:15:48 23° S 03:21:34 10° ESE visible
26 Aug 6.9 02:16:58 18° SE 02:16:58 18° SE 02:20:12 10° ESE visible
26 Aug 6.5 04:03:20 15° SW 04:07:33 25° S 04:13:30 10° SE visible
27 Aug 6.4 03:06:07 24° S 03:06:39 24° S 03:12:28 10° SE visible
28 Aug 7.0 02:08:57 17° SE 02:08:57 17° SE 02:11:16 10° SE visible
28 Aug 6.5 03:55:19 17° SW 03:58:25 23° S 04:04:04 10° SE visible
